Location: Newark
(43.6583°N, 1.6617°E)
Time: 15:54:51
(UTC+00:00)

Transit 4A - Pass Details

Date: 30 August 2019
Orbit: 865 x 980 km, 66.8° (Epoch: 15 September)

Event Time Altitude Azimuth Distance (km) Brightness Sun altitude
Rises 19:08:52 0° 286° (WNW) 3,681 13.7 -7.0°
Reaches altitude 10° 19:13:43 10° 318° (NW) 2,725 11.5 -7.9°
Maximum altitude 19:15:46 12° 337° (NNW) 2,607 10.9 -8.2°
Drops below altitude 10° 19:17:49 10° 356° (N) 2,712 10.7 -8.6°
Sets 19:22:36 0° 29° (NNE) 3,635 10.9 -9.4°
